Regional Weather Roundup
Issued by NWS

Home | Current Version | Previous Version | Graphics & Text | Print | Product List | Glossary On
Versions: 1 2 3 4 5 6 7 8 9 10 11 12 13 14 15 16 17 18 19 20 21 22 23 24 25 26 27 28 29 30 31 32 33 34 35 36 37 38 39 40 41 42 43 44 45 46 47 48 49 50
000
ASUS43 KLMK 021310
RWRKY
KENTUCKY REGIONAL WEATHER ROUNDUP
NATIONAL WEATHER SERVICE LOUISVILLE KY
900 AM EDT SUN AUG 02 2015

NOTE "FAIR" INDICATES FEW OR NO CLOUDS BELOW 12,000 FEET
WITH NO SIGNIFICANT WEATHER AND/OR OBSTRUCTIONS TO VISIBILITY.

KYZ001>023-026-027-061>063-070>075-021400-
WESTERN AND SOUTH CENTRAL KENTUCKY

CITY           SKY/WX    TMP DP  RH WIND       PRES   REMARKS
PADUCAH        SUNNY     74  67  78 S5        29.98R
HENDERSON      SUNNY     73  64  73 CALM      29.98R
OWENSBORO      MOSUNNY   73  65  76 SE3       30.00R
HOPKINSVILLE   SUNNY     71  63  75 E6        30.00R
BOWLING GREEN  SUNNY     70  64  81 CALM      30.01S
GLASGOW        SUNNY    N/A N/A N/A CALM      30.01S
$$

KYZ024-025-028>034-038-045-046-053-021400-
NORTH CENTRAL KENTUCKY

CITY           SKY/WX    TMP DP  RH WIND       PRES   REMARKS
LOUISVILLE/SDF MOSUNNY   72  62  71 CALM      29.99S
LOUISVILLE/LOU SUNNY     72  62  71 S3        30.01R
FORT KNOX      MOSUNNY   73  63  70 SE2       29.99S
$$

KYZ035>037-039>044-047>052-055>060-089>105-021400-
NORTHEAST KENTUCKY

CITY           SKY/WX    TMP DP  RH WIND       PRES   REMARKS
LEXINGTON      MOSUNNY   70  63  78 S3        30.02R
COVINGTON      NOT AVBL
FRANKFORT      MOSUNNY   67  63  87 S3        30.01R
$$

KYZ054-064>069-076>088-106>120-021400-
SOUTHEAST KENTUCKY

CITY           SKY/WX    TMP DP  RH WIND       PRES   REMARKS
JACKSON        PTSUNNY   66  61  84 CALM      30.04S
LONDON         MOSUNNY   67  60  78 CALM      30.04R
SOMERSET       MOSUNNY   63  63 100 CALM      30.05R
MIDDLESBORO    FOG       60  60 100 CALM      30.06S VSB 3/4
MONTICELLO     MOSUNNY   68  64  86 CALM      30.06R
$$



USA.gov is the U.S. government's official web portal to all federal, state and local government web resources and services.